Weather History for Petersburg, VA

Change the Weather History Date:

Monday, October 7, 2013

  Actual Average (KRIC) Record (KRIC)
Temperature  
Mean Temperature 73 °F 62 °F  
Max Temperature 82 °F 74 °F 95 °F (1941)
Min Temperature 64 °F 51 °F 33 °F (1935)
Degree Days  
Heating Degree Days 0 4  
Month to date heating degree days 25  
Since 1 July heating degree days 54  
Cooling Degree Days 8 2  
Month to date cooling degree days 16  
Year to date cooling degree days 1520  
Growing Degree Days 23 (Base 50)    
Moisture  
Dew Point 71 °F    
Average Humidity 89    
Maximum Humidity 100    
Minimum Humidity 74    
Precipitation  
Precipitation 0.00 in 0.10 in 1.86 in (1951)
Month to date precipitation 0.69  
Year to date precipitation 34.81  
Snow  
Snow 0.00 in 0.00 in 0.00 in (2002)
Month to date snowfall 0.0  
Since 1 July snowfall 0.0  
Snow Depth -    
Sea Level Pressure  
Sea Level Pressure 29.91 in    
Wind  
Wind Speed 5 mph (South)    
Max Wind Speed 16 mph    
Max Gust Speed 26 mph    
Visibility 9 miles    
Events      
T = Trace of Precipitation, MM = Missing Value Source: NWS Daily Summary

Daily Weather History Graph

Daily Weather History Graph

Search for Another Location

Airport:

Trip Planner

Search our weather history database for the weather conditions in past years. The results will help you decide how hot, cold, wet, or windy it might be!

Date:

Astronomy

Oct. 07, 2013 Rise Set
Actual Time 7:10 AM EDT 6:44 PM EDT
Civil Twilight 6:44 AM EDT 7:10 PM EDT
Nautical Twilight 6:14 AM EDT 7:40 PM EDT
Astronomical Twilight 5:44 AM EDT 8:10 PM EDT
Moon 9:54 AM EDT (10/7) 8:31 PM EDT (10/7)
Length of Visible Light 12h 25m
Length of Day
11h 33m
Waxing Crescent, 8% of the Moon is Illuminated
Oct 7
Waxing Crescent
Oct 11
First Quarter
Oct 18
Full
Oct 26
Last Quarter
Nov 3
New

Hourly Weather History & Observations

Time (EDT) Temp. Heat Index Dew Point Humidity Pressure Visibility Wind Dir Wind Speed Gust Speed Precip Events Conditions
12:15 AM 77.0 °F - 71.6 °F 83% 29.96 in 10.0 mi SSE 3.5 mph - N/A   Scattered Clouds
12:35 AM 77.0 °F - 71.6 °F 83% 29.95 in 10.0 mi SSE 5.8 mph - N/A   Overcast
12:55 AM 77.0 °F - 71.6 °F 83% 29.95 in 10.0 mi SSE 4.6 mph - N/A   Overcast
1:15 AM 77.0 °F - 71.6 °F 83% 29.94 in 10.0 mi SSE 4.6 mph - N/A   Overcast
1:35 AM 75.2 °F - 71.6 °F 89% 29.94 in 10.0 mi SSE 3.5 mph - N/A   Mostly Cloudy
1:55 AM 75.2 °F - 71.6 °F 89% 29.94 in 10.0 mi SSE 3.5 mph - N/A   Mostly Cloudy
2:15 AM 75.2 °F - 71.6 °F 89% 29.93 in 10.0 mi SSE 3.5 mph - N/A   Scattered Clouds
2:35 AM 75.2 °F - 71.6 °F 89% 29.93 in 10.0 mi SSE 4.6 mph - N/A   Clear
2:55 AM 73.4 °F - 71.6 °F 94% 29.92 in 10.0 mi SSE 4.6 mph - N/A   Scattered Clouds
3:15 AM 75.2 °F - 71.6 °F 89% 29.92 in 10.0 mi South 3.5 mph - N/A   Mostly Cloudy
3:35 AM 75.2 °F - 71.6 °F 89% 29.91 in 10.0 mi SSE 4.6 mph - N/A   Overcast
3:55 AM 75.2 °F - 71.6 °F 89% 29.90 in 10.0 mi South 4.6 mph - N/A   Overcast
4:15 AM 75.2 °F - 71.6 °F 89% 29.90 in 10.0 mi SSE 5.8 mph - N/A   Overcast
4:35 AM 75.2 °F - 71.6 °F 89% 29.90 in 10.0 mi South 4.6 mph - N/A   Overcast
4:55 AM 75.2 °F - 71.6 °F 89% 29.90 in 10.0 mi SSE 4.6 mph - N/A   Overcast
5:15 AM 73.4 °F - 71.6 °F 94% 29.89 in 10.0 mi SSE 3.5 mph - N/A   Overcast
5:35 AM 73.4 °F - 71.6 °F 94% 29.89 in 10.0 mi SSE 5.8 mph - N/A   Overcast
5:55 AM 73.4 °F - 71.6 °F 94% 29.88 in 10.0 mi SSE 4.6 mph - N/A   Overcast
6:15 AM 75.2 °F - 71.6 °F 89% 29.88 in 10.0 mi South 4.6 mph - N/A   Overcast
6:35 AM 75.2 °F - 71.6 °F 89% 29.88 in 10.0 mi South 5.8 mph - N/A   Overcast
6:55 AM 75.2 °F - 73.4 °F 94% 29.87 in 7.0 mi SSE 5.8 mph - N/A   Overcast
7:15 AM 75.2 °F - 73.4 °F 94% 29.87 in 7.0 mi SSE 6.9 mph - N/A   Overcast
7:35 AM 75.2 °F - 73.4 °F 94% 29.86 in 7.0 mi South 4.6 mph - N/A   Overcast
7:55 AM 75.2 °F - 73.4 °F 94% 29.86 in 10.0 mi South 5.8 mph - N/A   Overcast
8:15 AM 77.0 °F - 73.4 °F 89% 29.87 in 10.0 mi South 5.8 mph - N/A   Overcast
8:35 AM 78.8 °F - 73.4 °F 83% 29.88 in 10.0 mi South 8.1 mph - N/A   Overcast
8:55 AM 78.8 °F - 73.4 °F 83% 29.88 in 10.0 mi South 8.1 mph - N/A   Overcast
9:15 AM 78.8 °F - 73.4 °F 83% 29.88 in 10.0 mi South 9.2 mph - N/A   Overcast
9:35 AM 80.6 °F 85.4 °F 73.4 °F 79% 29.87 in 10.0 mi South 5.8 mph - N/A   Overcast
9:55 AM 80.6 °F 85.4 °F 73.4 °F 79% 29.87 in 10.0 mi South 10.4 mph 17.3 mph N/A   Mostly Cloudy
10:15 AM 82.4 °F 88.2 °F 73.4 °F 74% 29.87 in 10.0 mi South 12.7 mph 19.6 mph N/A   Scattered Clouds
10:35 AM 82.4 °F 88.2 °F 73.4 °F 74% 29.87 in 10.0 mi South 11.5 mph 18.4 mph N/A   Scattered Clouds
10:55 AM 82.4 °F 88.2 °F 73.4 °F 74% 29.87 in 10.0 mi South 11.5 mph 21.9 mph N/A   Mostly Cloudy
11:15 AM 82.4 °F 88.2 °F 73.4 °F 74% 29.87 in 10.0 mi South 16.1 mph 25.3 mph N/A   Overcast
11:35 AM 80.6 °F 85.4 °F 73.4 °F 79% 29.87 in 10.0 mi SSW 10.4 mph 16.1 mph N/A   Scattered Clouds
11:55 AM 82.4 °F 88.2 °F 73.4 °F 74% 29.87 in 10.0 mi SSW 6.9 mph - N/A   Mostly Cloudy
12:15 PM 82.4 °F 88.2 °F 73.4 °F 74% 29.87 in 10.0 mi South 9.2 mph 23.0 mph N/A   Mostly Cloudy
12:35 PM 78.8 °F - 73.4 °F 83% 29.88 in 3.0 mi South 6.9 mph 19.6 mph N/A   Mostly Cloudy
12:55 PM 77.0 °F - 73.4 °F 89% 29.87 in 2.5 mi SSW 6.9 mph - N/A   Overcast
1:15 PM 71.6 °F - 69.8 °F 94% 29.89 in 0.8 mi SW 15.0 mph 26.5 mph N/A   Overcast
1:35 PM 71.6 °F - 69.8 °F 94% 29.88 in 2.5 mi SW 6.9 mph - N/A   Overcast
1:55 PM 73.4 °F - 71.6 °F 94% 29.87 in 3.0 mi South 4.6 mph - N/A   Mostly Cloudy
2:15 PM 73.4 °F - 71.6 °F 94% 29.87 in 3.0 mi SSW 4.6 mph - N/A   Overcast
2:35 PM 73.4 °F - 71.6 °F 94% 29.88 in 4.0 mi South 5.8 mph - N/A   Overcast
2:55 PM 73.4 °F - 71.6 °F 94% 29.88 in 3.0 mi SSW 8.1 mph - N/A   Overcast
3:15 PM 73.4 °F - 71.6 °F 94% 29.89 in 7.0 mi SSW 4.6 mph - N/A   Mostly Cloudy
3:35 PM 73.4 °F - 71.6 °F 94% 29.88 in 7.0 mi WSW 3.5 mph - N/A   Mostly Cloudy
3:55 PM 73.4 °F - 71.6 °F 94% 29.87 in 4.0 mi Calm Calm - N/A   Mostly Cloudy
4:15 PM 73.4 °F - 71.6 °F 94% 29.88 in 10.0 mi Calm Calm - N/A   Scattered Clouds
4:35 PM 73.4 °F - 71.6 °F 94% 29.89 in 10.0 mi SSW 5.8 mph - N/A   Mostly Cloudy
4:55 PM 73.4 °F - 71.6 °F 94% 29.87 in 10.0 mi SSW 4.6 mph - N/A   Mostly Cloudy
5:15 PM 73.4 °F - 71.6 °F 94% 29.88 in 10.0 mi WSW 3.5 mph - N/A   Mostly Cloudy
5:35 PM 73.4 °F - 71.6 °F 94% 29.89 in 10.0 mi West 3.5 mph - N/A   Overcast
5:55 PM 73.4 °F - 71.6 °F 94% 29.89 in 10.0 mi Calm Calm - N/A   Scattered Clouds
6:15 PM 71.6 °F - 71.6 °F 100% 29.90 in 10.0 mi SSW 3.5 mph - N/A   Clear
6:35 PM 71.6 °F - 71.6 °F 100% 29.90 in 10.0 mi Calm Calm - N/A   Scattered Clouds
6:55 PM 71.6 °F - 71.6 °F 100% 29.91 in 10.0 mi Calm Calm - N/A   Mostly Cloudy
7:15 PM 71.6 °F - 69.8 °F 94% 29.91 in 10.0 mi Calm Calm - N/A   Mostly Cloudy
7:35 PM 71.6 °F - 69.8 °F 94% 29.92 in 10.0 mi Calm Calm - N/A   Scattered Clouds
7:55 PM 69.8 °F - 69.8 °F 100% 29.93 in 10.0 mi Calm Calm - N/A   Scattered Clouds
8:15 PM 69.8 °F - 69.8 °F 100% 29.94 in 7.0 mi Calm Calm - N/A   Scattered Clouds
8:35 PM 69.8 °F - 68.0 °F 94% 29.95 in 7.0 mi Calm Calm - N/A   Mostly Cloudy
8:55 PM 69.8 °F - 69.8 °F 100% 29.96 in 10.0 mi Calm Calm - N/A   Overcast
9:15 PM 71.6 °F - 69.8 °F 94% 29.97 in 10.0 mi Calm Calm - N/A   Overcast
9:35 PM 71.6 °F - 69.8 °F 94% 29.98 in 10.0 mi Calm Calm - N/A   Overcast
9:55 PM 71.6 °F - 69.8 °F 94% 29.99 in 10.0 mi North 9.2 mph - N/A   Overcast
10:15 PM 66.2 °F - 62.6 °F 88% 30.01 in 10.0 mi NNE 13.8 mph 26.5 mph N/A   Overcast
10:35 PM 66.2 °F - 60.8 °F 83% 30.02 in 10.0 mi NNE 11.5 mph 17.3 mph N/A   Overcast
10:55 PM 66.2 °F - 60.8 °F 83% 30.02 in 10.0 mi NNE 12.7 mph 16.1 mph N/A   Overcast
11:15 PM 66.2 °F - 60.8 °F 83% 30.04 in 10.0 mi NNE 9.2 mph - N/A   Overcast
11:35 PM 64.4 °F - 57.2 °F 77% 30.05 in 10.0 mi NNE 6.9 mph - N/A   Scattered Clouds
11:55 PM 64.4 °F - 57.2 °F 77% 30.05 in 10.0 mi NNE 8.1 mph - N/A   Scattered Clouds